[[{"header":{"parameterUnit":"m.s-1","parameterCategory":1,"la1":30.2992,"la2":30.254,"lo1":-89.0895,"lo2":-89.0443,"dy":0.0025,"dx":0.0025,"nx":19,"ny":19,"refTime":"2026-05-21T03:00:00:Z","depth":0,"parameterNumber":2,"parameterNumberName":"U-component_of_WINDS"},"data":[0,0,0,0.4926,0.4932,0.5262,0.5264,0.5638,0.5641,0,0,0,0,0,0,0,0,0,0,0,0.4803,0.4805,0.4925,0.4933,0.5262,0.5264,0.5637,0.5641,0,0,0,0,0,0,0,0,0,0,0,0.4803,0.4805,0.4807,0.4934,0.5262,0.5264,0.5637,0.5404,0,0,0,0,0,0,0,0,0,0,0.5091,0.4956,0.4804,0.4807,0.4936,0.5261,0.5264,0.5393,0.5418,0.5469,0,0.5512,0,0.5582,0.5663,0.5664,0,0,0,0.495,0.4935,0.5046,0.4807,0.4938,0.5261,0.5118,0.5408,0.5436,0.5502,0.5518,0.5533,0.5588,0.5665,0.5667,0.591,0.591,0,0,0.4932,0.4849,0.5026,0.5063,0.5014,0.5108,0.5128,0.5426,0.5436,0.5519,0.5542,0.5594,0.5668,0.567,0.591,0.591,0,0,0,0.4868,0.4835,0.4941,0.5047,0.511,0.5117,0.5141,0.5423,0.5464,0.5547,0.5599,0.5669,0.5674,0.591,0.591,0.5847,0,0,0,0.4858,0.4798,0.4932,0.4884,0.5103,0.5271,0.513,0.5443,0.5479,0.5597,0.567,0.5677,0.591,0.591,0.5848,0.5831,0,0,0,0.479,0.4791,0.483,0.4879,0.5018,0.5269,0.5328,0.5453,0.551,0.5665,0.5678,0.5909,0.591,0.5849,0.5833,0.5871,0,0,0,0.4694,0.4769,0.4828,0.4932,0.5015,0.5227,0.5327,0.5488,0.5613,0.5671,0.591,0.591,0.5849,0.5834,0.5871,0.5888,0.5888,0,0,0.4743,0.4772,0.484,0.4902,0.5083,0.5183,0.5354,0.5546,0.5634,0.5811,0.5819,0.5847,0.5833,0.5871,0.591,0.5909,0,0,0,0.4827,0.4875,0.494,0.5056,0.5205,0.5329,0.5503,0.5573,0.5728,0.571,0.5873,0.5867,0.5892,0.5904,0.5904,0.593,0.5912,0.5912,0.5912,0.478,0.4889,0.5007,0.5156,0.5265,0.5442,0.554,0.5664,0.5743,0.5778,0.5833,0.5844,0.5855,0.5855,0.5881,0.585,0.585,0.585,0.5849,0.4862,0.4946,0.5046,0.5198,0.5311,0.5437,0.5607,0.5657,0.5789,0.5813,0.5841,0.5859,0.585,0.5879,0.5846,0.5846,0.5847,0.5847,0.5847,0.4844,0.4904,0.4988,0.5164,0.5286,0.5431,0.5552,0.5651,0.5744,0.5771,0.5838,0.5839,0.5853,0.5795,0.5795,0.5795,0.5795,0.5795,0.5795,0.4794,0.4891,0.4983,0.5143,0.5228,0.5352,0.5526,0.5611,0.573,0.5792,0.5793,0.5865,0.5829,0.5818,0.5797,0.5796,0.5796,0.5796,0.5796,0.484,0.4844,0.4987,0.5072,0.5266,0.5378,0.55,0.5664,0.5748,0.5803,0.5869,0.5826,0.5863,0.5864,0.5856,0.5846,0.5846,0.5846,0.5846,0.4826,0.4853,0.502,0.5148,0.5285,0.5409,0.5561,0.5693,0.5831,0.5888,0.5903,0.59,0.5897,0.5936,0.5936,0.593,0.5938,0.5939,0.5939,0.486,0.4904,0.5018,0.5155,0.5313,0.5444,0.5589,0.5728,0.5885,0.5944,0.5935,0.5931,0.5927,0.592,0.5983,0.598,0.5972,0,0]},{"header":{"parameterUnit":"m.s-1","parameterCategory":1,"la1":30.2992,"la2":30.254,"lo1":-89.0895,"lo2":-89.0443,"dy":0.0025,"dx":0.0025,"nx":19,"ny":19,"refTime":"2026-05-21T03:00:00:Z","depth":0,"parameterNumber":3,"parameterNumberName":"V-component_of_WINDS"},"data":[0,0,0,1.8218,1.822,1.8298,1.8298,1.8419,1.842,0,0,0,0,0,0,0,0,0,0,0,1.8203,1.8204,1.8218,1.822,1.8298,1.8298,1.8419,1.842,0,0,0,0,0,0,0,0,0,0,0,1.8202,1.8204,1.8205,1.822,1.8298,1.8298,1.8418,1.8353,0,0,0,0,0,0,0,0,0,0,1.8274,1.8267,1.8203,1.8205,1.8221,1.8298,1.8298,1.835,1.8357,1.8391,0,1.8419,0,1.8421,1.8429,1.843,0,0,0,1.8215,1.8261,1.8274,1.8205,1.8222,1.8298,1.8262,1.8354,1.8362,1.8401,1.842,1.8424,1.8423,1.843,1.8431,1.8632,1.8633,0,0,1.8211,1.8222,1.8268,1.828,1.8264,1.8259,1.8264,1.8359,1.8382,1.8421,1.8427,1.8425,1.8431,1.8432,1.863,1.8632,0,0,0,1.8202,1.822,1.823,1.8275,1.8288,1.8262,1.8267,1.8378,1.838,1.8428,1.8427,1.8432,1.8433,1.8629,1.8631,1.87,0,0,0,1.8199,1.8214,1.8229,1.8236,1.8286,1.8333,1.8285,1.8374,1.8384,1.8426,1.8432,1.8435,1.8628,1.863,1.8695,1.8732,0,0,0,1.8195,1.8213,1.8227,1.8237,1.827,1.8331,1.8339,1.8376,1.8384,1.843,1.8435,1.8627,1.863,1.8691,1.8725,1.879,0,0,0,1.8196,1.8287,1.8228,1.8331,1.827,1.8371,1.8338,1.8413,1.8461,1.8432,1.8628,1.8631,1.8689,1.872,1.8786,1.8849,1.8875,0,0,1.8318,1.8302,1.8362,1.8311,1.8425,1.8358,1.8484,1.8518,1.8514,1.8594,1.8599,1.8696,1.8724,1.8789,1.9013,1.9034,0,0,0,1.8405,1.8448,1.8476,1.852,1.8546,1.8573,1.8586,1.86,1.8666,1.8556,1.8735,1.8752,1.879,1.882,1.8838,1.8872,1.8644,1.8644,1.8643,1.8597,1.8584,1.8683,1.868,1.8723,1.8736,1.8772,1.8793,1.8768,1.8811,1.8836,1.8973,1.9008,1.9022,1.9057,1.8865,1.8866,1.8866,1.8866,1.8778,1.8839,1.8802,1.8885,1.8873,1.8945,1.8962,1.8943,1.9011,1.8953,1.8986,1.8927,1.9045,1.9076,1.8871,1.887,1.887,1.8869,1.8869,1.8905,1.8932,1.8944,1.9007,1.9059,1.9054,1.912,1.9106,1.9095,1.9127,1.9154,1.9153,1.9154,1.914,1.914,1.9141,1.9141,1.9141,1.9142,1.9034,1.9045,1.91,1.9136,1.9164,1.9199,1.9213,1.9242,1.927,1.9256,1.9256,1.9231,1.9056,1.9015,1.9149,1.9148,1.9147,1.9146,1.9146,1.9229,1.9182,1.9268,1.9296,1.9338,1.9393,1.9372,1.9432,1.9454,1.9489,1.9456,1.9327,1.9312,1.9298,1.9264,1.9454,1.9454,1.9454,1.9455,1.9339,1.9328,1.9414,1.946,1.9502,1.9494,1.9598,1.9611,1.9619,1.9633,1.9602,1.9555,1.9541,1.9535,1.9515,1.9484,1.9726,1.9726,1.9726,1.946,1.9453,1.9542,1.9544,1.9576,1.9607,1.9705,1.9763,1.9762,1.9737,1.9645,1.9633,1.9557,1.9531,1.9507,1.9477,1.9419,0,0]}]]